+ View the NASA Portal
+ Center for Near-Earth Object Studies
IMPORTANT:
The SSD Announcement email list is now available. Major changes are coming in the near future, including possible hostname and/or URL changes. To be notified of such changes, subscribe to this email list.
Please visit
this page
for more details.
Don't show this message again
JPL Small-Body Database Browser
Search:
[
help
]
233318 (2006 BZ165)
Classification:
Main-belt Asteroid
SPK-ID:
2233318
[
Ephemeris
|
Orbit Diagram
|
Orbital Elements
|
Mission Design
|
Physical Parameters
|
Discovery Circumstances
]
[ show orbit diagram ]
Orbital Elements at Epoch 2458600.5 (2019-Apr-27.0) TDB
Reference:
JPL 10
(heliocentric ecliptic J2000)
Element
Value
Uncertainty (1-sigma)
Units
e
.2186166771100867
8.8536e-08
a
2.600429373912629
1.8069e-08
au
q
2.031932145128387
2.3179e-07
au
i
2.640186952411233
6.1518e-06
deg
node
336.8918448524768
0.00018629
deg
peri
83.83157128543077
0.00018745
deg
M
116.2004113520718
1.6006e-05
deg
t
p
2458106.108282761422
(2017-Dec-18.60828276)
6.7925e-05
TDB
period
1531.672875637498
4.19
1.5964e-05
4.371e-08
d
yr
n
.2350371320966066
2.4497e-09
deg/d
Q
3.168926602696871
2.2019e-08
au
Orbit Determination Parameters
# obs. used (total)
215
data-arc span
6790 days (18.59 yr)
first obs. used
2000-09-24
last obs. used
2019-04-28
planetary ephem.
DE431
SB-pert. ephem.
SB431-N16
condition code
0
norm. resid. RMS
.55789
source
ORB
producer
Otto Matic
solution date
2019-Jul-14 06:47:00
Additional Information
Earth MOID
= 1.04636 au
Jupiter MOID
= 2.18207 au
T_jup
= 3.379
[ show covariance matrix ]
[
Ephemeris
|
Orbit Diagram
|
Orbital Elements
|
Mission Design
|
Physical Parameters
|
Discovery Circumstances
]
Physical Parameter Table
Parameter
Symbol
Value
Units
Sigma
Reference
Notes
absolute magnitude
H
16.8
n/a
MPO170821
233318 (2006 BZ165)
Discovered 2006-Jan-26 by Mt. Lemmon Survey at Mount Lemmon
Reference:
20100228/Numbers.arc
Last Updated:
2010-03-03
Alternate Designations
2006 BZ165
= 2000 SC57
[
Ephemeris
|
Orbit Diagram
|
Orbital Elements
|
Mission Design
|
Physical Parameters
|
Discovery Circumstances
]
2019-Dec-10 00:44 UT
(server date/time)
Site Manager:
Ryan S. Park
Webmaster
:
Alan B. Chamberlin